W6MAF Weather Reports


Display with metric or nautical units.
time (UTC)temp
F
wind
direction
speed
MPH
gust
MPH
rain 1hr
in
rain 24hr
in
rain mn
in
humidity
%
barometer
mb
20260901112615 62 148 2.0 0.0 0.00 0.00 0.00 23
20260901112114 61 170 9.0 10.0 0.00 0.00 0.00 24
20260901111616 60 186 8.0 11.0 0.00 0.00 0.00 26
20260901111119 60 191 11.0 8.0 0.00 0.00 0.00 29
20260901110621 60 193 10.0 7.0 0.00 0.00 0.00 31
20260901110123 59 183 9.0 8.0 0.00 0.00 0.00 34
20260901105626 59 195 11.0 9.0 0.00 0.00 0.00 36
20260901105125 60 186 11.0 11.0 0.00 0.00 0.00 38
20260901104627 60 193 12.0 9.0 0.00 0.00 0.00 37
20260901104129 60 211 11.0 9.0 0.00 0.00 0.00 37
20260901103631 60 181 11.0 12.0 0.00 0.00 0.00 36
20260901103134 60 207 9.0 11.0 0.00 0.00 0.00 35
20260901102636 60 201 10.0 13.0 0.00 0.00 0.00 35
20260901102135 60 201 9.0 9.0 0.00 0.00 0.00 35
20260901101638 59 194 11.0 7.0 0.00 0.00 0.00 35
20260901101140 59 198 8.0 8.0 0.00 0.00 0.00 36
20260901100642 60 214 7.0 7.0 0.00 0.00 0.00 35
20260901095646 61 205 6.0 8.0 0.00 0.00 0.00 31
20260901095145 62 221 5.0 5.0 0.00 0.00 0.00 29
20260901094648 63 186 6.0 6.0 0.00 0.00 0.00 29
20260901094150 63 187 3.0 4.0 0.00 0.00 0.00 28
20260901093652 64 218 2.0 5.0 0.00 0.00 0.00 23
20260901093155 65 190 5.0 3.0 0.00 0.00 0.00 21
20260901092657 65 193 10.0 10.0 0.00 0.00 0.00 20
20260901092156 66 215 0.0 0.0 0.00 0.00 0.00 19
20260901091658 66 193 12.0 14.0 0.00 0.00 0.00 18
20260901091200 66 169 8.0 8.0 0.00 0.00 0.00 17
20260901090703 66 160 12.0 10.0 0.00 0.00 0.00 17
20260901090206 66 166 12.0 17.0 0.00 0.00 0.00 17
20260901085707 66 218 6.0 5.0 0.00 0.00 0.00 17
20260901085206 66 143 13.0 14.0 0.00 0.00 0.00 16
20260901084709 66 214 7.0 7.0 0.00 0.00 0.00 18
20260901084211 65 193 11.0 17.0 0.00 0.00 0.00 19
20260901083713 65 203 14.0 11.0 0.00 0.00 0.00 20
20260901083216 65 208 4.0 6.0 0.00 0.00 0.00 20
20260901082718 65 217 9.0 5.0 0.00 0.00 0.00 20
20260901082217 65 197 8.0 10.0 0.00 0.00 0.00 20
20260901081719 65 195 8.0 11.0 0.00 0.00 0.00 19
20260901081221 64 205 11.0 8.0 0.00 0.00 0.00 19
20260901080724 64 193 8.0 8.0 0.00 0.00 0.00 18
20260901080226 64 169 8.0 8.0 0.00 0.00 0.00 18
20260901075728 64 184 14.0 10.0 0.00 0.00 0.00 18
20260901075227 64 197 9.0 8.0 0.00 0.00 0.00 17
20260901074730 63 195 6.0 9.0 0.00 0.00 0.00 16
20260901074234 63 191 8.0 7.0 0.00 0.00 0.00 16
20260901073735 62 193 11.0 15.0 0.00 0.00 0.00 17
20260901073237 61 184 7.0 9.0 0.00 0.00 0.00 21
20260901072738 61 186 7.0 9.0 0.00 0.00 0.00 25
20260901072237 62 197 7.0 8.0 0.00 0.00 0.00 29
20260901071241 62 187 7.0 5.0 0.00 0.00 0.00 23
20260901070743 62 193 8.0 9.0 0.00 0.00 0.00 23
20260901070245 62 198 9.0 10.0 0.00 0.00 0.00 25
20260901065747 62 194 9.0 9.0 0.00 0.00 0.00 29
20260901065246 62 195 9.0 8.0 0.00 0.00 0.00 26
20260901064749 62 198 10.0 10.0 0.00 0.00 0.00 25
20260901064251 62 183 10.0 9.0 0.00 0.00 0.00 26
20260901063753 62 214 10.0 9.0 0.00 0.00 0.00 31
20260901063256 63 200 9.0 10.0 0.00 0.00 0.00 30
20260901062758 63 194 10.0 10.0 0.00 0.00 0.00 27
20260901062257 64 191 10.0 12.0 0.00 0.00 0.00 17
20260901061800 64 194 7.0 8.0 0.00 0.00 0.00 13
20260901061301 65 177 9.0 10.0 0.00 0.00 0.00 13
20260901060804 65 162 10.0 12.0 0.00 0.00 0.00 13
20260901060306 65 181 12.0 9.0 0.00 0.00 0.00 13
20260901055808 65 186 13.0 12.0 0.00 0.00 0.00 13
20260901055307 65 169 14.0 13.0 0.00 0.00 0.00 13
20260901054810 65 169 12.0 14.0 0.00 0.00 0.00 13
20260901054312 65 191 12.0 11.0 0.00 0.00 0.00 13
20260901053814 65 184 15.0 16.0 0.00 0.00 0.00 14
20260901053316 65 193 17.0 16.0 0.00 0.00 0.00 15
20260901052819 64 177 14.0 15.0 0.00 0.00 0.00 16
20260901052318 64 172 15.0 18.0 0.00 0.00 0.00 17
20260901051322 63 184 16.0 13.0 0.00 0.00 0.00 20
20260901050825 63 172 12.0 14.0 0.00 0.00 0.00 22
20260901050359 63 181 11.0 12.0 0.00 0.00 0.00 25
20260901050327 63 181 11.0 12.0 0.00 0.00 0.00 25
20260901045829 63 176 12.0 12.0 0.00 0.00 0.00 27
20260901045414 63 174 11.0 10.0 0.00 0.00 0.00 30
20260901045328 63 174 11.0 10.0 0.00 0.00 0.00 30
20260901044830 64 180 10.0 10.0 0.00 0.00 0.00 30
20260901043835 64 166 10.0 11.0 0.00 0.00 0.00 31
20260901043337 64 159 12.0 15.0 0.00 0.00 0.00 32
20260901042840 64 176 12.0 14.0 0.00 0.00 0.00 34
20260901042339 64 165 12.0 16.0 0.00 0.00 0.00 35
20260901041841 65 179 12.0 10.0 0.00 0.00 0.00 36
20260901041343 65 162 10.0 12.0 0.00 0.00 0.00 37
20260901040846 65 170 13.0 11.0 0.00 0.00 0.00 37
20260901040348 65 158 14.0 15.0 0.00 0.00 0.00 37
20260901035850 65 160 11.0 15.0 0.00 0.00 0.00 36
20260901035349 65 173 14.0 13.0 0.00 0.00 0.00 35
20260901034851 65 181 13.0 17.0 0.00 0.00 0.00 36
20260901034354 66 153 16.0 16.0 0.00 0.00 0.00 38
20260901033856 66 183 14.0 19.0 0.00 0.00 0.00 38
20260901033358 66 156 13.0 14.0 0.00 0.00 0.00 38
20260901032901 66 169 14.0 14.0 0.00 0.00 0.00 37
20260901032359 66 174 15.0 17.0 0.00 0.00 0.00 37
20260901031902 67 174 14.0 13.0 0.00 0.00 0.00 37
20260901031404 67 159 15.0 11.0 0.00 0.00 0.00 36
20260901030906 67 149 12.0 17.0 0.00 0.00 0.00 35
20260901030409 68 148 12.0 11.0 0.00 0.00 0.00 34
20260901025911 68 139 15.0 17.0 0.00 0.00 0.00 32
20260901025410 68 159 13.0 15.0 0.00 0.00 0.00 30
20260901024912 69 138 15.0 12.0 0.00 0.00 0.00 28
20260901024414 69 148 15.0 17.0 0.00 0.00 0.00 28
20260901023917 69 146 16.0 19.0 0.00 0.00 0.00 26
20260901022921 71 172 13.0 13.0 0.00 0.00 0.00 24
20260901022420 71 158 12.0 10.0 0.00 0.00 0.00 21
20260901021922 72 166 16.0 16.0 0.00 0.00 0.00 16
20260901021425 73 176 12.0 11.0 0.00 0.00 0.00 12
20260901020927 74 173 13.0 13.0 0.00 0.00 0.00 6
20260901020429 74 183 14.0 13.0 0.00 0.00 0.00 5
20260901015932 75 170 16.0 11.0 0.00 0.00 0.00 5
20260901015431 75 190 19.0 21.0 0.00 0.00 0.00 5
20260901014933 75 177 16.0 13.0 0.00 0.00 0.00 5
20260901014435 75 174 14.0 12.0 0.00 0.00 0.00 5
20260901013937 75 145 15.0 12.0 0.00 0.00 0.00 5
20260901013440 76 158 14.0 13.0 0.00 0.00 0.00 4
20260901012942 76 165 13.0 11.0 0.00 0.00 0.00 5
20260901012441 76 200 16.0 12.0 0.00 0.00 0.00 5
20260901011943 77 179 14.0 15.0 0.00 0.00 0.00 4
20260901011445 77 170 15.0 13.0 0.00 0.00 0.00 4
20260901010948 77 162 15.0 14.0 0.00 0.00 0.00 4
20260901010450 77 183 15.0 18.0 0.00 0.00 0.00 4
20260901005952 77 179 10.0 16.0 0.00 0.00 0.00 4
20260901005450 78 184 18.0 20.0 0.00 0.00 0.00 4
20260901004953 78 181 17.0 13.0 0.00 0.00 0.00 3
20260901004455 78 170 16.0 20.0 0.00 0.00 0.00 3
20260901003957 78 188 18.0 22.0 0.00 0.00 0.00 3
20260901003459 78 204 22.0 18.0 0.00 0.00 0.00 3
20260901002501 79 160 13.0 11.0 0.00 0.00 0.00 4
20260901002002 79 176 21.0 12.0 0.00 0.00 0.00 5
20260901001504 79 195 18.0 22.0 0.00 0.00 0.00 5
20260901001006 79 186 16.0 16.0 0.00 0.00 0.00 5
20260901000509 79 180 25.0 19.0 0.00 0.00 0.00 4
20260901000011 79 177 16.0 26.0 0.00 0.00 0.00 5
20260831235510 79 174 19.0 16.0 0.00 0.00 0.00 5
20260831235012 80 177 14.0 17.0 0.00 0.00 0.00 5
20260831234513 79 173 13.0 17.0 0.00 0.00 0.00 5
20260831233518 80 173 16.0 24.0 0.00 0.00 0.00 4
20260831233020 80 176 22.0 29.0 0.00 0.00 0.00 4
20260831232519 80 173 19.0 24.0 0.00 0.00 0.00 4
20260831232022 80 169 19.0 15.0 0.00 0.00 0.00 4
20260831231524 80 166 17.0 24.0 0.00 0.00 0.00 4
20260831231027 80 166 16.0 13.0 0.00 0.00 0.00 4
20260831230528 80 184 22.0 19.0 0.00 0.00 0.00 4
20260831230031 80 183 22.0 22.0 0.00 0.00 0.00 4
20260831225530 80 174 18.0 27.0 0.00 0.00 0.00 4
20260831225032 80 204 15.0 18.0 0.00 0.00 0.00 5
20260831224534 80 197 16.0 16.0 0.00 0.00 0.00 5
20260831224036 80 179 15.0 10.0 0.00 0.00 0.00 5
20260831223539 80 176 18.0 14.0 0.00 0.00 0.00 5
20260831223041 80 166 20.0 24.0 0.00 0.00 0.00 5
20260831222539 80 179 19.0 21.0 0.00 0.00 0.00 5
20260831222041 80 170 19.0 24.0 0.00 0.00 0.00 3
20260831221544 80 203 11.0 23.0 0.00 0.00 0.00 5
20260831221046 80 187 14.0 13.0 0.00 0.00 0.00 5
20260831220548 80 163 14.0 19.0 0.00 0.00 0.00 6
20260831220050 80 173 16.0 18.0 0.00 0.00 0.00 6
20260831215052 80 167 20.0 18.0 0.00 0.00 0.00 6
20260831214554 80 138 14.0 12.0 0.00 0.00 0.00 6
20260831214056 80 159 13.0 8.0 0.00 0.00 0.00 6
20260831213559 80 170 21.0 21.0 0.00 0.00 0.00 6
20260831213101 80 156 23.0 20.0 0.00 0.00 0.00 6
20260831212600 80 162 14.0 7.0 0.00 0.00 0.00 7
20260831212102 80 180 15.0 19.0 0.00 0.00 0.00 8
20260831211604 80 162 20.0 24.0 0.00 0.00 0.00 7
20260831211107 80 190 17.0 22.0 0.00 0.00 0.00 6
20260831210609 80 187 19.0 21.0 0.00 0.00 0.00 6
20260831210111 80 163 17.0 20.0 0.00 0.00 0.00 6
20260831205610 80 172 19.0 24.0 0.00 0.00 0.00 6
20260831205112 80 165 20.0 23.0 0.00 0.00 0.00 6
20260831204615 80 165 22.0 19.0 0.00 0.00 0.00 6
20260831204117 80 155 22.0 23.0 0.00 0.00 0.00 6
20260831203619 81 165 16.0 14.0 0.00 0.00 0.00 5
20260831203122 81 184 21.0 24.0 0.00 0.00 0.00 5
20260831202621 81 187 22.0 10.0 0.00 0.00 0.00 5
20260831202123 80 208 6.0 14.0 0.00 0.00 0.00 5
20260831201625 80 177 16.0 19.0 0.00 0.00 0.00 5
20260831201128 80 198 18.0 15.0 0.00 0.00 0.00 5
20260831200630 80 179 16.0 18.0 0.00 0.00 0.00 5
20260831200132 80 186 16.0 14.0 0.00 0.00 0.00 6
20260831195631 80 162 17.0 16.0 0.00 0.00 0.00 6
20260831195133 80 180 19.0 23.0 0.00 0.00 0.00 5
20260831194636 80 160 13.0 23.0 0.00 0.00 0.00 5
20260831194138 80 197 16.0 15.0 0.00 0.00 0.00 6
20260831193640 80 181 19.0 13.0 0.00 0.00 0.00 6
20260831193142 80 179 18.0 19.0 0.00 0.00 0.00 5
20260831192642 80 180 15.0 16.0 0.00 0.00 0.00 5
20260831192144 80 166 16.0 16.0 0.00 0.00 0.00 5
20260831191646 80 172 16.0 15.0 0.00 0.00 0.00 5
20260831191148 80 177 15.0 21.0 0.00 0.00 0.00 5
20260831190651 80 162 12.0 17.0 0.00 0.00 0.00 5
20260831190153 80 194 12.0 11.0 0.00 0.00 0.00 5
20260831185651 80 166 16.0 20.0 0.00 0.00 0.00 5
20260831185401 80 191 18.0 17.0 0.00 0.00 0.00 5
20260831185153 80 191 18.0 17.0 0.00 0.00 0.00 5
20260831184656 80 195 16.0 16.0 0.00 0.00 0.00 5
20260831184158 80 176 18.0 16.0 0.00 0.00 0.00 5
20260831183700 80 194 15.0 18.0 0.00 0.00 0.00 5
20260831182702 80 187 13.0 15.0 0.00 0.00 0.00 5
20260831182204 80 173 13.0 14.0 0.00 0.00 0.00 4
20260831181706 80 193 18.0 16.0 0.00 0.00 0.00 4
20260831181209 80 174 13.0 13.0 0.00 0.00 0.00 4
20260831180711 80 208 14.0 11.0 0.00 0.00 0.00 4
20260831180213 80 207 11.0 9.0 0.00 0.00 0.00 5
20260831175712 80 193 13.0 16.0 0.00 0.00 0.00 5
20260831175215 80 193 14.0 9.0 0.00 0.00 0.00 5
20260831174717 80 204 12.0 14.0 0.00 0.00 0.00 4
20260831174219 80 195 16.0 14.0 0.00 0.00 0.00 5
20260831173721 79 194 14.0 11.0 0.00 0.00 0.00 5
20260831173306 79 205 12.0 14.0 0.00 0.00 0.00 5
20260831173224 79 205 12.0 14.0 0.00 0.00 0.00 5
20260831172724 79 203 16.0 15.0 0.00 0.00 0.00 5
20260831172225 79 229 17.0 17.0 0.00 0.00 0.00 5
20260831171727 79 211 12.0 9.0 0.00 0.00 0.00 5
20260831171230 79 236 12.0 3.0 0.00 0.00 0.00 5
20260831170732 79 181 13.0 17.0 0.00 0.00 0.00 6
20260831170312 79 236 8.0 7.0 0.00 0.00 0.00 6
20260831170234 79 236 8.0 7.0 0.00 0.00 0.00 6
20260831165734 78 208 9.0 11.0 0.00 0.00 0.00 6
20260831164738 77 231 9.0 11.0 0.00 0.00 0.00 8
20260831164240 77 249 7.0 8.0 0.00 0.00 0.00 11
20260831163743 77 224 11.0 15.0 0.00 0.00 0.00 11
20260831163245 76 212 11.0 11.0 0.00 0.00 0.00 12
20260831162744 76 212 10.0 12.0 0.00 0.00 0.00 13
20260831162247 75 207 9.0 14.0 0.00 0.00 0.00 15
20260831161749 75 184 7.0 9.0 0.00 0.00 0.00 16
20260831161251 75 207 7.0 8.0 0.00 0.00 0.00 19
20260831160753 74 224 8.0 3.0 0.00 0.00 0.00 21
20260831160256 73 233 9.0 12.0 0.00 0.00 0.00 23
20260831155755 73 229 6.0 9.0 0.00 0.00 0.00 28
20260831155257 72 205 7.0 9.0 0.00 0.00 0.00 29
20260831154302 71 238 8.0 8.0 0.00 0.00 0.00 32
20260831153804 71 208 8.0 9.0 0.00 0.00 0.00 33
20260831153306 70 225 9.0 10.0 0.00 0.00 0.00 35
20260831152806 69 232 5.0 8.0 0.00 0.00 0.00 39
20260831152308 69 236 10.0 13.0 0.00 0.00 0.00 41
20260831151810 69 238 8.0 11.0 0.00 0.00 0.00 43
20260831151313 68 243 7.0 7.0 0.00 0.00 0.00 45
20260831150815 68 260 7.0 7.0 0.00 0.00 0.00 47
20260831150317 67 235 8.0 10.0 0.00 0.00 0.00 49
20260831145816 66 235 9.0 12.0 0.00 0.00 0.00 52
20260831145319 66 238 9.0 7.0 0.00 0.00 0.00 56
20260831144323 65 236 9.0 9.0 0.00 0.00 0.00 62
20260831143826 64 235 9.0 9.0 0.00 0.00 0.00 64
20260831143328 64 238 6.0 7.0 0.00 0.00 0.00 67
20260831142827 64 233 5.0 6.0 0.00 0.00 0.00 69
20260831142329 64 212 2.0 7.0 0.00 0.00 0.00 71
20260831141832 63 222 6.0 10.0 0.00 0.00 0.00 72
20260831141334 63 255 5.0 0.0 0.00 0.00 0.00 73
20260831140837 63 239 9.0 10.0 0.00 0.00 0.00 75
20260831140339 62 194 9.0 6.0 0.00 0.00 0.00 76
20260831135838 62 205 6.0 6.0 0.00 0.00 0.00 76
20260831135340 62 232 7.0 6.0 0.00 0.00 0.00 77
20260831134841 62 222 11.0 10.0 0.00 0.00 0.00 79
20260831134343 62 226 12.0 13.0 0.00 0.00 0.00 81
20260831133845 61 245 13.0 9.0 0.00 0.00 0.00 82
20260831133347 61 219 10.0 12.0 0.00 0.00 0.00 83
20260831132846 61 229 13.0 13.0 0.00 0.00 0.00 83
20260831132349 61 218 13.0 15.0 0.00 0.00 0.00 82
20260831131851 61 217 13.0 14.0 0.00 0.00 0.00 81
20260831131353 61 239 13.0 15.0 0.00 0.00 0.00 82
20260831130358 61 231 13.0 14.0 0.00 0.00 0.00 81
20260831125857 61 250 11.0 10.0 0.00 0.00 0.00 80
20260831125359 61 235 13.0 13.0 0.00 0.00 0.00 79
20260831124902 62 242 11.0 12.0 0.00 0.00 0.00 78
20260831124404 62 232 11.0 10.0 0.00 0.00 0.00 76
20260831123906 62 236 11.0 10.0 0.00 0.00 0.00 75
20260831123409 62 238 12.0 9.0 0.00 0.00 0.00 73
20260831122908 62 233 13.0 12.0 0.00 0.00 0.00 72
20260831122410 62 221 12.0 16.0 0.00 0.00 0.00 70
20260831121912 62 221 11.0 12.0 0.00 0.00 0.00 69
20260831121415 62 239 11.0 7.0 0.00 0.00 0.00 66
20260831120917 63 222 14.0 11.0 0.00 0.00 0.00 65
20260831120419 63 212 11.0 16.0 0.00 0.00 0.00 62
20260831115918 63 207 11.0 17.0 0.00 0.00 0.00 62
20260831115421 63 212 15.0 13.0 0.00 0.00 0.00 62
20260831114923 63 214 12.0 13.0 0.00 0.00 0.00 60
20260831114425 63 217 15.0 17.0 0.00 0.00 0.00 60
20260831113927 63 198 13.0 9.0 0.00 0.00 0.00 61
20260831113430 63 205 14.0 14.0 0.00 0.00 0.00 60
20260831112929 63 211 14.0 18.0 0.00 0.00 0.00 60